EW9371 Weather Reports


time (UTC)temp
C
wind
direction
speed
KPH
gust
KPH
rain 1hr
cm
rain 24hr
cm
rain mn
cm
humidity
%
barometer
mb
20191019143021 18 0.0 0.0 0.00 0.00 0.00 59 1014.7
20191019142024 17 0.0 0.0 0.00 0.00 0.00 60 1014.6
20191019141016 17 0.0 0.0 0.00 0.00 0.00 60 1014.6
20191019140017 17 0.0 0.0 0.00 0.00 0.00 60 1014.3
20191019135020 17 0.0 0.0 0.00 0.00 0.00 60 1014.3
20191019134022 17 0.0 0.0 0.00 0.00 0.00 64 1014.8
20191019133025 17 0.0 0.0 0.00 0.00 0.00 73 1014.7
20191019132017 17 0.0 0.0 0.00 0.00 0.00 72 1014.7
20191019131020 16 0.0 0.0 0.00 0.00 0.00 74 1014.7
20191019130022 16 0.0 0.0 0.00 0.00 0.00 74 1014.4
20191019125023 16 0.0 0.0 0.00 0.00 0.00 74 1014.4
20191019124016 16 0.0 0.0 0.00 0.00 0.00 74 1014.5
20191019123019 15 0.0 0.0 0.00 0.00 0.00 76 1014.5
20191019122021 15 0.0 0.0 0.00 0.00 0.00 76 1014.6
20191019121023 15 0.0 0.0 0.00 0.00 0.00 75 1014.6
20191019120016 15 0.0 0.0 0.00 0.00 0.00 74 1014.7
20191019115018 15 0.0 0.0 0.00 0.00 0.00 73 1014.7
20191019114020 16 0.0 0.0 0.00 0.00 0.00 71 1014.7
20191019113022 16 0.0 0.0 0.00 0.00 0.00 71 1014.7
20191019112024 16 0.0 0.0 0.00 0.00 0.00 70 1014.5
20191019111016 16 0.0 0.0 0.00 0.00 0.00 71 1014.4
20191019110018 16 0.0 0.0 0.00 0.00 0.00 68 1014.6
20191019105021 17 0.0 0.0 0.00 0.00 0.00 69 1014.6
20191019104023 16 0.0 0.0 0.00 0.00 0.00 71 1014.2
20191019103313 16 0.0 0.0 0.00 0.00 0.00 69 1014.3
20191019102419 17 0.0 0.0 0.00 0.00 0.00 70 1014.1
20191019101422 16 0.0 0.0 0.00 0.00 0.00 71 1013.9
20191019100019 17 0.0 0.0 0.00 0.00 0.00 66 1013.3
20191019095022 16 0.0 0.0 0.00 0.00 0.00 68 1013.3
20191019094024 16 0.0 0.0 0.00 0.00 0.00 71 1012.3
20191019093017 13 0.0 0.0 0.00 0.00 0.00 77 1012.2
20191019092020 13 0.0 0.0 0.00 0.00 0.00 78 1013.4
20191019091022 13 0.0 0.0 0.00 0.00 0.00 78 1013.4
20191019090024 13 0.0 0.0 0.00 0.00 0.00 77 1013.5
20191019085016 13 0.0 0.0 0.00 0.00 0.00 78 1013.4
20191019084019 13 0.0 0.0 0.00 0.00 0.00 80 1013.3
20191019083021 12 0.0 0.0 0.00 0.00 0.00 81 1013.3
20191019082023 12 0.0 0.0 0.00 0.00 0.00 81 1013.8
20191019081015 12 0.0 0.0 0.00 0.00 0.00 82 1013.8
20191019080018 12 0.0 0.0 0.00 0.00 0.00 82 1013.9
20191019075021 12 0.0 0.0 0.00 0.00 0.00 83 1013.9
20191019074024 11 0.0 0.0 0.00 0.00 0.00 83 1013.9
20191019073016 11 0.0 0.0 0.00 0.00 0.00 83 1013.9
20191019072018 11 0.0 0.0 0.00 0.00 0.00 85
20191019071021 11 0.0 0.0 0.00 0.00 0.00 86
20191019070024 11 0.0 0.0 0.00 0.00 0.00 87 1014.2
20191019065024 10 0.0 0.0 0.00 0.00 0.00 87 1014.2
20191019064017 10 0.0 0.0 0.00 0.00 0.00 88 1013.9
20191019063019 10 0.0 0.0 0.00 0.00 0.00 88 1013.9
20191019062021 10 0.0 0.0 0.00 0.00 0.00 88 1014.0
20191019061023 10 0.0 0.0 0.00 0.00 0.00 88 1014.0
20191019060015 10 0.0 0.0 0.00 0.00 0.00 88 1014.2
20191019055016 10 0.0 0.0 0.00 0.00 0.00 88 1014.2
20191019054018 10 0.0 0.0 0.00 0.00 0.00 87 1014.3
20191019053019 10 0.0 0.0 0.00 0.00 0.00 87 1014.3
20191019052022 10 0.0 0.0 0.00 0.00 0.00 86 1013.9
20191019051024 10 0.0 0.0 0.00 0.00 0.00 85 1014.0
20191019050016 10 0.0 0.0 0.00 0.00 0.00 84 1014.4
20191019045019 10 0.0 0.0 0.00 0.00 0.00 85 1014.4
20191019044021 10 0.0 0.0 0.00 0.00 0.00 84 1014.5
20191019043023 10 0.0 0.0 0.00 0.00 0.00 85 1014.5
20191019042015 10 0.0 0.0 0.00 0.00 0.00 85 1014.7
20191019041018 10 0.0 0.0 0.00 0.00 0.00 85 1014.7
20191019040020 10 0.0 0.0 0.00 0.00 0.00 85 1015.1
20191019035023 10 0.0 0.0 0.00 0.00 0.00 84 1015.1
20191019034016 10 0.0 0.0 0.00 0.00 0.00 85 1015.1
20191019033018 10 0.0 0.0 0.00 0.00 0.00 85 1015.2
20191019032020 10 0.0 0.0 0.00 0.00 0.00 85 1015.1
20191019031022 10 0.0 0.0 0.00 0.00 0.00 85 1015.1
20191019030025 10 0.0 0.0 0.00 0.00 0.00 85 1015.3
20191019025018 10 0.0 0.0 0.00 0.00 0.00 86 1015.3
20191019024020 10 0.0 0.0 0.00 0.00 0.00 86 1014.9
20191019023021 10 0.0 0.0 0.00 0.00 0.00 85 1014.9
20191019022024 10 0.0 0.0 0.00 0.00 0.00 86 1015.5
20191019021016 10 0.0 0.0 0.00 0.00 0.00 85 1015.6
20191019020017 10 0.0 0.0 0.00 0.00 0.00 85 1015.9
20191019015020 10 0.0 0.0 0.00 0.00 0.00 85 1015.9
20191019014022 10 0.0 0.0 0.00 0.00 0.00 85 1015.9
20191019013015 10 0.0 0.0 0.00 0.00 0.00 85 1015.9
20191019012018 10 0.0 0.0 0.00 0.00 0.00 85 1015.8
20191019011020 10 0.0 0.0 0.00 0.00 0.00 85 1015.8
20191019010022 10 0.0 0.0 0.00 0.00 0.00 85 1015.9
20191019005024 10 0.0 0.0 0.00 0.00 0.00 85 1015.9
20191019004016 10 0.0 0.0 0.00 0.00 0.00 84 1016.0
20191019003018 10 0.0 0.0 0.00 0.00 0.00 85 1016.0
20191019002020 10 0.0 0.0 0.00 0.00 0.00 86 1015.8
20191019001023 10 0.0 0.0 0.00 0.00 0.00 84 1015.8
20191019000024 10 0.0 0.0 0.00 0.00 0.00 85 1015.8
20191018235016 10 0.0 0.0 0.00 0.00 0.00 84 1015.8
20191018234018 10 0.0 0.0 0.00 0.00 0.00 85 1015.9
20191018233020 10 0.0 0.0 0.00 0.00 0.00 83 1016.0
20191018232023 11 0.0 0.0 0.00 0.00 0.00 84 1016.2
20191018231025 11 0.0 0.0 0.00 0.00 0.00 84 1016.2
20191018230017 11 0.0 0.0 0.00 0.00 0.00 83 1016.1
20191018225019 11 0.0 0.0 0.00 0.00 0.00 83 1016.2
20191018224021 11 0.0 0.0 0.00 0.00 0.00 82 1016.2
20191018223024 11 0.0 0.0 0.00 0.00 0.00 84 1016.2
20191018222016 11 0.0 0.0 0.00 0.00 0.00 83 1016.1
20191018221019 11 0.0 0.0 0.00 0.00 0.00 83 1016.1
20191018220021 11 0.0 0.0 0.00 0.00 0.00 82 1016.0
20191018215023 11 0.0 0.0 0.00 0.00 0.00 82 1015.9
20191018214015 12 0.0 0.0 0.00 0.00 0.00 83 1015.6
20191018213017 12 0.0 0.0 0.00 0.00 0.00 82 1015.3
20191018212020 12 0.0 0.0 0.00 0.00 0.00 83 1015.4
20191018211022 12 0.0 0.0 0.00 0.00 0.00 83 1015.4
20191018210015 12 0.0 0.0 0.00 0.00 0.00 83 1015.3
20191018205017 12 0.0 0.0 0.00 0.00 0.00 83 1015.3
20191018204019 12 0.0 0.0 0.00 0.00 0.00 82 1015.4
20191018203022 12 0.0 0.0 0.00 0.00 0.00 83 1015.4
20191018202024 13 0.0 0.0 0.00 0.00 0.00 82 1015.5
20191018182517 15 0.0 0.0 0.00 0.00 0.00 76 1015.4
20191018181519 15 0.0 0.0 0.00 0.00 0.00 76 1015.4
20191018180523 15 0.0 0.0 0.00 0.00 0.00 76 1015.5
20191018175525 15 0.0 0.0 0.00 0.00 0.00 74 1015.5
20191018174517 15 0.0 0.0 0.00 0.00 0.00 74 1015.2
20191018173519 15 0.0 0.0 0.00 0.00 0.00 74 1015.2
20191018172521 16 0.0 0.0 0.00 0.00 0.00 73 1015.2
20191018171523 16 0.0 0.0 0.00 0.00 0.00 72 1015.2
20191018170525 16 0.0 0.0 0.00 0.00 0.00 71 1015.0
20191018165517 16 0.0 0.0 0.00 0.00 0.00 71 1015.0
20191018164520 16 0.0 0.0 0.00 0.00 0.00 70 1014.7
20191018163523 17 0.0 0.0 0.00 0.00 0.00 69 1014.8
20191018162525 17 0.0 0.0 0.00 0.00 0.00 67 1014.8
20191018161517 17 0.0 0.0 0.00 0.00 0.00 64 1014.7
20191018160518 18 0.0 0.0 0.00 0.00 0.00 62 1014.7
20191018155522 18 0.0 0.0 0.00 0.00 0.00 59 1014.7
20191018154524 19 0.0 0.0 0.00 0.00 0.00 57 1014.6
20191018153518 20 0.0 0.0 0.00 0.00 0.00 55 1014.6
20191018152519 20 0.0 0.0 0.00 0.00 0.00 54 1014.8
20191018151522 20 0.0 0.0 0.00 0.00 0.00 53 1014.8
20191018150525 21 0.0 0.0 0.00 0.00 0.00 50 1014.9
20191018145517 22 0.0 0.0 0.00 0.00 0.00 51 1014.9
20191018144519 21 0.0 0.0 0.00 0.00 0.00 53 1014.5